CEB566 RPVM-RPLL

Flight info

Callsign CEB566
Flight time N/A
Altitude 34000
Route MOLOC4P MOLOC W11 CONDE CONDE7R
Aircraft A20N/M-SDE2E3FGHIJ1RWXY/LB1

Departure

Time 2026-04-30 10:21
Airport Mactan Cebu International Airport (RPVM)

Arrival

Time N/A
Airport Ninoy Aquino International Airport (RPLL)
Time Latitude Longitude Altitude Speed Heading
2026-04-30 09:28 10.31503 123.97932 37 ft 0 kts 315°
2026-04-30 10:07 10.31501 123.97935 37 ft 2 kts 315°
2026-04-30 10:07 10.31490 123.97945 37 ft 2 kts 315°
2026-04-30 10:08 10.31480 123.97956 37 ft 2 kts 315°
2026-04-30 10:08 10.31470 123.97968 37 ft 2 kts 294°
2026-04-30 10:08 10.31465 123.97983 37 ft 2 kts 274°
2026-04-30 10:08 10.31467 123.97999 37 ft 2 kts 251°
2026-04-30 10:09 10.31474 123.98012 37 ft 2 kts 230°
2026-04-30 10:09 10.31484 123.98023 37 ft 2 kts 224°
2026-04-30 10:09 10.31495 123.98033 37 ft 2 kts 225°
2026-04-30 10:09 10.31505 123.98044 37 ft 2 kts 225°
2026-04-30 10:10 10.31509 123.98048 37 ft 0 kts 226°
2026-04-30 10:13 10.31504 123.98042 37 ft 3 kts 226°
2026-04-30 10:13 10.31469 123.98006 37 ft 10 kts 226°
2026-04-30 10:13 10.31410 123.97944 37 ft 13 kts 226°
2026-04-30 10:14 10.31365 123.97903 37 ft 6 kts 208°
2026-04-30 10:14 10.31318 123.97905 37 ft 7 kts 144°
2026-04-30 10:14 10.31234 123.97980 37 ft 6 kts 160°
2026-04-30 10:15 10.31190 123.97967 37 ft 7 kts 220°
2026-04-30 10:15 10.31147 123.97925 37 ft 9 kts 224°
2026-04-30 10:15 10.31097 123.97875 37 ft 10 kts 224°
2026-04-30 10:15 10.31041 123.97819 37 ft 11 kts 225°
2026-04-30 10:16 10.30981 123.97757 37 ft 12 kts 225°
2026-04-30 10:16 10.30914 123.97689 37 ft 13 kts 225°
2026-04-30 10:16 10.30844 123.97618 37 ft 14 kts 224°
2026-04-30 10:17 10.30693 123.97468 37 ft 15 kts 224°
2026-04-30 10:17 10.30549 123.97324 37 ft 5 kts 224°
2026-04-30 10:17 10.30515 123.97290 37 ft 7 kts 224°
2026-04-30 10:18 10.30474 123.97249 37 ft 9 kts 224°
2026-04-30 10:18 10.30425 123.97200 37 ft 10 kts 224°
2026-04-30 10:18 10.30377 123.97161 37 ft 6 kts 197°
2026-04-30 10:19 10.30315 123.97199 37 ft 5 kts 133°
2026-04-30 10:19 10.30312 123.97228 37 ft 5 kts 54°
2026-04-30 10:19 10.30318 123.97234 37 ft 0 kts 45°
2026-04-30 10:20 10.30439 123.97356 37 ft 61 kts 44°
2026-04-30 10:20 10.30921 123.97839 37 ft 129 kts 45°
2026-04-30 10:21 10.31646 123.98566 361 ft 150 kts 45°
2026-04-30 10:21 10.32379 123.99315 935 ft 153 kts 47°
2026-04-30 10:21 10.33123 124.00087 1597 ft 155 kts 47°
2026-04-30 10:21 10.33887 124.00881 2150 ft 165 kts 47°
2026-04-30 10:22 10.34764 124.01733 2622 ft 183 kts 38°
2026-04-30 10:22 10.36043 124.02026 3073 ft 207 kts 355°
2026-04-30 10:22 10.37437 124.01530 3752 ft 215 kts 343°
2026-04-30 10:22 10.38835 124.01002 4471 ft 218 kts 345°
2026-04-30 10:23 10.40332 124.00480 4944 ft 238 kts 346°
2026-04-30 10:23 10.41971 123.99937 5452 ft 258 kts 346°
2026-04-30 10:23 10.43747 123.99360 6020 ft 276 kts 346°
2026-04-30 10:23 10.45604 123.98758 6766 ft 286 kts 346°
2026-04-30 10:24 10.47494 123.98147 7641 ft 289 kts 346°
2026-04-30 10:24 10.49429 123.97522 8497 ft 293 kts 346°
2026-04-30 10:24 10.51397 123.96889 9310 ft 297 kts 347°
2026-04-30 10:24 10.53351 123.96260 10085 ft 300 kts 346°
2026-04-30 10:25 10.55393 123.95606 10712 ft 310 kts 346°
2026-04-30 10:25 10.57520 123.94927 11095 ft 328 kts 346°
2026-04-30 10:25 10.59741 123.94217 11431 ft 346 kts 346°
2026-04-30 10:25 10.62103 123.93459 11801 ft 361 kts 345°
2026-04-30 10:26 10.64426 123.92447 12392 ft 371 kts 333°
2026-04-30 10:26 10.66521 123.90856 13106 ft 378 kts 319°
2026-04-30 10:26 10.68319 123.88868 13784 ft 382 kts 313°
2026-04-30 10:26 10.70040 123.86801 14387 ft 387 kts 312°
2026-04-30 10:27 10.71761 123.84717 14982 ft 391 kts 312°
2026-04-30 10:27 10.73542 123.82575 15624 ft 393 kts 312°
2026-04-30 10:27 10.75316 123.80460 16201 ft 396 kts 313°
2026-04-30 10:27 10.77107 123.78338 16737 ft 400 kts 313°
2026-04-30 10:28 10.78943 123.76166 17283 ft 403 kts 313°
2026-04-30 10:28 10.80762 123.74020 17811 ft 406 kts 313°
2026-04-30 10:28 10.82619 123.71832 18335 ft 410 kts 313°
2026-04-30 10:28 10.84480 123.69636 18837 ft 413 kts 313°
2026-04-30 10:29 10.86355 123.67422 19340 ft 416 kts 313°
2026-04-30 10:29 10.88254 123.65176 19848 ft 419 kts 313°
2026-04-30 10:29 10.90156 123.62926 20331 ft 422 kts 313°
2026-04-30 10:29 10.92071 123.60658 20820 ft 424 kts 312°
2026-04-30 10:30 10.94014 123.58356 21292 ft 428 kts 312°
2026-04-30 10:30 10.95941 123.56072 21744 ft 431 kts 312°
2026-04-30 10:30 10.97913 123.53748 22208 ft 434 kts 313°
2026-04-30 10:30 11.00033 123.51534 22700 ft 435 kts 319°
2026-04-30 10:31 11.02316 123.49542 23176 ft 436 kts 324°
2026-04-30 10:31 11.04790 123.47720 23646 ft 438 kts 327°
2026-04-30 10:31 11.07287 123.45980 24101 ft 441 kts 328°
2026-04-30 10:31 11.09848 123.44212 24563 ft 443 kts 327°
2026-04-30 10:32 11.12412 123.42445 25020 ft 445 kts 327°
2026-04-30 10:32 11.14984 123.40670 25453 ft 448 kts 327°
2026-04-30 10:32 11.17548 123.38893 25863 ft 451 kts 327°
2026-04-30 10:32 11.20180 123.37062 26274 ft 454 kts 327°
2026-04-30 10:33 11.22771 123.35258 26662 ft 457 kts 327°
2026-04-30 10:33 11.25402 123.33414 27047 ft 459 kts 326°
2026-04-30 10:33 11.28031 123.31560 27415 ft 462 kts 326°
2026-04-30 10:33 11.30682 123.29694 27761 ft 465 kts 326°
2026-04-30 10:34 11.33348 123.27821 28115 ft 467 kts 326°
2026-04-30 10:34 11.36058 123.25917 28458 ft 469 kts 326°
2026-04-30 10:34 11.38730 123.24044 28770 ft 471 kts 326°
2026-04-30 10:34 11.41466 123.22128 29091 ft 473 kts 325°
2026-04-30 10:35 11.44171 123.20231 29368 ft 476 kts 326°
2026-04-30 10:35 11.46892 123.18323 29617 ft 479 kts 326°